Tracking 22879 objects as of 21-Apr-2021
HD Live streaming from Space Station
objects crossing your sky now

COSMOS 509

Track COSMOS 509 now!
10-day predictions
COSMOS 509 is classified as:


NORAD ID: 6122
Int'l Code: 1972-057F
Perigee: 1,479.9 km
Apogee: 1,505.7 km
Inclination: 74.0 °
Period: 115.7 minutes
Semi major axis: 7863 km
RCS: 0.7159 m2 (medium)
Launch date: July 20, 1972
Source: Commonwealth of Independent States (former USSR) (CIS)
Launch site: PLESETSK MISSILE AND SPACE COMPLEX (PKMTR)
aabbcc
Your satellite tracking list
Your tracking list is empty




NASA's NSSDC Master Catalog

Two Line Element Set (TLE):
1 06122U 72057F   21110.89224719 -.00000026  00000-0 -72558-4 0  9990
2 06122  74.0279 181.2832 0016399 262.1544 217.5537 12.44961126215609
Source of the keplerian elements: AFSPC